Location: Passau
(48.5830°N, 13.4830°E)
Time: 19:45:14
(UTC+02:00)

S-56A Canister/Altair - Pass Details

Date: 25 May 2024
Orbit: 637 x 2489 km, 38.9° (Epoch: 15 June)

Event Time Altitude Azimuth Distance (km) Brightness Sun altitude
Rises 03:25:43 0° 176° (S) 6,144 - -13.5°
Exits shadow 03:25:54 - 175° (S) 6,115 11.7 -13.4°
Reaches altitude 10° 03:34:40 10° 147° (SSE) 4,963 11.4 -12.6°
Maximum altitude 03:37:46 11° 134° (SE) 4,764 11.5 -12.3°
Drops below altitude 10° 03:40:44 10° 121° (ESE) 4,717 11.6 -12.0°
Sets 03:48:14 0° 91° (E) 5,275 12.4 -11.2°
